Location: Carrer del Canonge
(41.4901°N, 2.2931°E)
Time: 04:44:21
(UTC+00:00)

MOS 1 - Pass Details

Date: 18 September 2020
Orbit: 878 x 891 km, 99.1° (Epoch: 25 October)

Event Time Altitude Azimuth Distance (km) Brightness Sun altitude
Exits shadow 19:23:17 20° 145° (SE) 1,955 5.6 -17.2°
Maximum altitude 19:27:15 60° 71° (ENE) 1,014 4.3 -17.9°
Drops below altitude 10° 19:32:52 10° 353° (N) 2,568 7.0 -18.9°
Sets 19:35:18 0° 350° (N) 3,512 7.8 -19.3°
